• Join FlightAware (Why Join?)
  • Login
  • US Flag 
08:45AM EDT


 

Airport Tracker/Info


-or-


 

Live Flight TrackerFlight Track Log ✈ SWA378 ✈ 03-May-2013 ✈ KBWI - KALB

Flight Track Log - Related Links

Times and Time Zones

All times are in EDT time to prevent confusion due to time zone crossing. See the SWA378 flight status page for this flight to view local times or setup timezone preferences in your user account.

Time Position Orientation Groundspeed Altitude Reporting Facility
EDT Latitude Longitude Course Direction KTS MPH feet Rate Location/Type
10:27PM 39.1500 -76.6500 137° Southeast 154 177 1,900  Level Potomac TRACON
10:28PM 39.0886 -76.5758 137° Southeast 207 238 6,200 2,400 Climbing Washington Center
10:29PM 39.0997 -76.4983 80° East 168 193 8,700 2,340 Climbing Washington Center
10:30PM 39.1150 -76.4047 78° East 214 246 10,900 2,460 Climbing Washington Center
10:31PM 39.1300 -76.2981 80° East 268 308 13,700 2,220 Climbing Washington Center
10:32PM 39.1475 -76.1722 80° East 315 362 15,400 2,100 Climbing Washington Center
10:33PM 39.1711 -76.0281 78° East 363 418 17,900 2,460 Climbing Washington Center
10:34PM 39.1964 -75.8889 77° East 386 444 20,400 2,460 Climbing Washington Center
10:35PM 39.2717 -75.7792 48° Northeast 389 448 22,900 1,500 Climbing Washington Center
10:36PM 39.3550 -75.6722 45° Northeast 401 461 23,500 960 Climbing Washington Center
10:37PM 39.4406 -75.5594 45° Northeast 419 482 24,900 1,320 Climbing Washington Center
10:38PM 39.5258 -75.4489 45° Northeast 426 490 26,200 1,020 Climbing Washington Center
10:39PM 39.6111 -75.3383 45° Northeast 431 496 27,000 360 Climbing Washington Center
10:40PM 39.6942 -75.2247 46° Northeast 431 496 27,000 900 Level Washington Center
10:41PM 39.7833 -75.0947 48° Northeast 431 496 28,900 600 Climbing Washington Center
10:43PM 39.9578 -74.8464 47° Northeast 444 511 29,000  Climbing New York Center
10:44PM 40.0297 -74.7478 46° Northeast 432 497 29,000  Level New York Center
10:45PM 40.1108 -74.6356 47° Northeast 427 491 29,000  Level New York Center
10:46PM 40.1894 -74.5206 48° Northeast 427 491 29,000  Level New York Center
10:47PM 40.2847 -74.4086 42° Northeast 422 486 29,000  Level New York Center
10:48PM 40.3750 -74.3128 39° Northeast 412 474 29,000  Level New York Center
10:51PM 40.5731 -74.0958 40° Northeast 413 475 29,000 -60 Level Boston Center
10:52PM 40.6533 -74.0158 37° Northeast 413 475 28,900 -1,740 Descending Boston Center
10:53PM 40.7422 -73.9194 39° Northeast 408 470 25,600 -2,460 Descending Boston Center
10:54PM 40.8311 -73.8169 41° Northeast 408 470 24,000 -1,140 Descending Boston Center
10:55PM 40.9178 -73.7092 43° Northeast 418 481 23,400 -540 Descending Boston Center
10:56PM 41.0247 -73.6506 22° Northeast 412 474 23,000 -360 Descending Boston Center
10:57PM 41.1314 -73.6086 16° North 402 463 22,700 -900 Descending Boston Center
10:58PM 41.2422 -73.5831 10° North 397 457 21,200 -1,500 Descending Boston Center
10:59PM 41.3525 -73.5986 354° North 392 451 19,700 -1,380 Descending Boston Center
11:00PM 41.4669 -73.6175 353° North 382 440 18,500 -960 Descending Boston Center
11:01PM 41.5625 -73.6303 354° North 388 447 17,800 -1,200 Descending Boston Center
11:02PM 41.6811 -73.6464 354° North 388 447 16,200 -1,500 Descending Boston Center
11:03PM 41.7769 -73.6622 353° North 388 447 14,800 -1,500 Descending Boston Center
11:04PM 41.8914 -73.6756 355° North 382 440 13,200 -1,560 Descending Boston Center
11:04PM 41.9414 -73.6850 352° North 376 433 12,500 -1,440 Descending Boston Center
11:05PM 41.9850 -73.6914 354° North 382 440 11,800 -1,500 Descending Boston Center
11:05PM 42.0433 -73.6981 355° North 368 423 11,000 -840 Descending Boston Center
11:06PM 42.0953 -73.7075 352° North 371 427 11,000  Level Boston Center
11:06PM 42.1431 -73.7142 354° North 364 419 11,000  Level Boston Center
11:07PM 42.1828 -73.7178 356° North 358 412 11,000 -300 Level Boston Center
11:07PM 42.2369 -73.7244 355° North 296 341 10,700 -840 Descending Boston Center
11:08PM 42.2744 -73.7167 North 307 353 10,200 -1,440 Descending Boston Center
11:08PM 42.3161 -73.7147 North 269 310 9,300 -1,500 Descending Boston Center
11:09PM 42.3411 -73.7125 North 282 325 8,700 -1,500 Descending Boston Center
11:09PM 42.3911 -73.7078 North 274 315 7,800 -1,620 Descending Boston Center
11:10PM 42.4247 -73.7031 North 270 311 7,100 -1,620 Descending Boston Center
11:10PM 42.4683 -73.7011 North 273 314 6,200 -1,440 Descending Boston Center
11:11PM 42.4956 -73.6958 North 270 311 5,700 -1,560 Descending Boston Center
11:11PM 42.5372 -73.6911 North 272 313 4,800 -1,620 Descending Boston Center
11:12PM 42.5769 -73.6864 North 270 311 4,100 -1,140 Descending Boston Center
11:12PM 42.6144 -73.6842 North 272 313 3,700 -1,140 Descending Boston Center
11:13PM 42.6458 -73.6819 North 270 311 3,000 -780 Descending Boston Center
11:13PM 42.6814 -73.6800 North 268 308 3,000  Level Boston Center
11:14PM 42.7206 -73.6947 345° North 263 303 3,000  Level Boston Center
11:14PM 42.7456 -73.7067 341° North 227 261 3,000 -300 Level Boston Center
11:15PM 42.7706 -73.7128 350° North 225 259 2,700 -720 Descending Boston Center
11:15PM 42.7953 -73.7303 333° Northwest 183 211 2,300 -120 Descending Boston Center
11:16PM 42.8369 -73.7339 356° North 218 251 2,600 -840 Climbing Boston Center
11:16PM 42.8072 -73.7900 234° Southwest 170 196 1,500 20,400 Descending Boston Center
11:17PM 42.8950 -73.7578 15° North 218 251 23,000 -720 Climbing Boston Center
11:17PM 42.7797 -73.8092 198° South 119 137 800  Descending Boston Center
11:18PM 42.9511 -73.7789 North 218 251 23,000 13,980 Climbing Boston Center
11:19PM 43.0092 -73.8031 343° North 218 251 23,000  Level Boston Center